Regional Weather Roundup
Issued by NWS

Home | Current Version | Previous Version | Graphics & Text | Print | Product List | Glossary On
Versions: 1 2 3 4 5 6 7 8 9 10 11 12 13 14 15 16 17 18 19 20 21 22 23 24 25 26 27 28 29 30 31 32 33 34 35 36 37 38 39 40 41 42 43 44 45 46 47 48 49 50
000
ASUS43 KLMK 071602
RWRKY
KENTUCKY REGIONAL WEATHER ROUNDUP
NATIONAL WEATHER SERVICE LOUISVILLE KY
1100 AM EST WED DEC 07 2016

NOTE "FAIR" INDICATES FEW OR NO CLOUDS BELOW 12,000 FEET
WITH NO SIGNIFICANT WEATHER AND/OR OBSTRUCTIONS TO VISIBILITY.

KYZ001>023-026-027-061>063-070>075-071700-
WESTERN AND SOUTH CENTRAL KENTUCKY

CITY           SKY/WX    TMP DP  RH WIND       PRES   REMARKS
PADUCAH        MOSUNNY   39  22  50 NE10      30.23S WCI  32
HENDERSON      MOSUNNY   36  19  51 NE5       30.23S WCI  32
OWENSBORO      MOSUNNY   37  24  59 N6        30.23S WCI  32
HOPKINSVILLE   SUNNY     39  30  71 N12       30.20S WCI  32
BOWLING GREEN  PTSUNNY   41  32  70 N7        30.22R
GLASGOW        NOT AVBL
$$

KYZ024-025-028>034-038-045-046-053-071700-
NORTH CENTRAL KENTUCKY

CITY           SKY/WX    TMP DP  RH WIND       PRES   REMARKS
LOUISVILLE/SDF PTSUNNY   40  24  53 CALM      30.21S
LOUISVILLE/LOU MOSUNNY   40  25  55 NW3       30.22R
FORT KNOX      CLOUDY    37  27  66 NW3       30.19R
$$

KYZ035>037-039>044-047>052-055>060-089>105-071700-
NORTHEAST KENTUCKY

CITY           SKY/WX    TMP DP  RH WIND       PRES   REMARKS
LEXINGTON      SUNNY     40  28  62 N5        30.19R
COVINGTON      PTSUNNY   36  23  59 W8        30.19R WCI  30
FRANKFORT      MOSUNNY   39  28  64 N6        30.19R WCI  35
$$

KYZ054-064>069-076>088-106>120-071700-
SOUTHEAST KENTUCKY

CITY           SKY/WX    TMP DP  RH WIND       PRES   REMARKS
JACKSON        SUNNY     39  31  72 CALM      30.16R
LONDON         CLOUDY    37  31  78 CALM      30.17R
SOMERSET       SUNNY     39  32  75 NE6       30.18S WCI  35
MIDDLESBORO    SUNNY     45  37  72 E6        30.13S
MONTICELLO     PTSUNNY   39  33  79 N10G16    30.20R WCI  32
$$





USA.gov is the U.S. government's official web portal to all federal, state and local government web resources and services.